Weather History for Laoag, Philippines

Change the Weather History Date:

Sunday, February 24, 2013

  Actual Average Record
Temperature  
Mean Temperature 86 °F -  
Max Temperature 95 °F - - ()
Min Temperature 77 °F - - ()
Cooling Degree Days 21    
Growing Degree Days 36 (Base 50)    
Moisture  
Dew Point 70 °F    
Average Humidity 57    
Maximum Humidity 83    
Minimum Humidity 38    
Precipitation  
Precipitation 0.00 in - - ()
Sea Level Pressure  
Sea Level Pressure 29.88 in    
Wind  
Wind Speed 6 mph ()    
Max Wind Speed 16 mph    
Max Gust Speed 28 mph    
Visibility 6.5 miles    
Events      
T = Trace of Precipitation, MM = Missing Value Source: Averaged Metar Reports

Daily Weather History Graph

Daily Weather History Graph

Search for Another Location

Airport:

Trip Planner

Search our weather history database for the weather conditions in past years. The results will help you decide how hot, cold, wet, or windy it might be!

Date:

Astronomy

Feb. 24, 2013 Rise Set
Actual Time 6:20 AM PHT 6:02 PM PHT
Civil Twilight 5:58 AM PHT 6:24 PM PHT
Nautical Twilight 5:32 AM PHT 6:49 PM PHT
Astronomical Twilight 5:07 AM PHT 7:15 PM PHT
Moon 4:42 PM PHT (2/24) 4:49 AM PHT (2/24)
Length of Visible Light 12h 26m
Length of Day
11h 42m
Waxing Gibbous, 97% of the Moon is Illuminated
Feb 24
Waxing Gibbous
Feb 26
Full
Mar 5
Last Quarter
Mar 12
New
Mar 20
First Quarter

Hourly Weather History & Observations

Time (PHT) Temp. Heat Index Dew Point Humidity Pressure Visibility Wind Dir Wind Speed Gust Speed Precip Events Conditions
2:00 AM 78 °F - 69 °F 68% 29.91 in 7 mi Calm Calm - -   Scattered Clouds
5:00 AM 77 °F - 68 °F 67% 29.89 in 7 mi Calm Calm - -   Scattered Clouds
6:00 AM 77.0 °F - 68.0 °F 74% 29.89 in 6.2 mi Calm Calm - N/A   Mostly Cloudy
7:00 AM 77.0 °F - 68.0 °F 74% 29.89 in 6.2 mi Calm Calm - N/A   Mostly Cloudy
8:00 AM 80 °F - 68 °F 59% 29.94 in 7 mi NE 2.2 mph - -  
8:00 AM 80.6 °F 83.2 °F 68.0 °F 65% 29.92 in 6.2 mi NE 2.3 mph - N/A   Mostly Cloudy
9:00 AM 86.0 °F 90.4 °F 69.8 °F 58% 29.95 in 6.2 mi NE 9.2 mph - N/A   Mostly Cloudy
10:00 AM 89.6 °F 96.2 °F 71.6 °F 55% 29.95 in 6.2 mi NNE 9.2 mph - N/A   Scattered Clouds
11:00 AM 92 °F - 71 °F 40% 29.94 in 7 mi East 15.7 mph - -   Haze
11:00 AM 89.6 °F 96.2 °F 71.6 °F 55% 29.92 in 6.2 mi East 16.1 mph 27.6 mph N/A   Scattered Clouds
12:00 PM 89.6 °F 96.2 °F 71.6 °F 55% 29.92 in 6.2 mi East 16.1 mph 27.6 mph N/A   Scattered Clouds
1:00 PM 93.2 °F 98.8 °F 69.8 °F 46% 29.89 in 6.2 mi East 13.8 mph 25.3 mph N/A   Scattered Clouds
2:00 PM 94 °F - 71 °F 38% 29.84 in 7 mi ESE 13.4 mph - -   Haze
2:00 PM 95.0 °F 103.2 °F 71.6 °F 47% 29.83 in 6.2 mi ESE 13.8 mph 25.3 mph N/A   Scattered Clouds
3:00 PM 95.0 °F 103.2 °F 71.6 °F 47% 29.80 in 6.2 mi ESE 16.1 mph - N/A   Partly Cloudy
4:00 PM 93.2 °F 100.5 °F 71.6 °F 49% 29.80 in 6.2 mi East 13.8 mph - N/A   Partly Cloudy
5:00 PM 90 °F - 70 °F 42% 29.81 in 7 mi East 15.7 mph - -   Haze
5:00 PM 89.6 °F 94.7 °F 69.8 °F 52% 29.80 in 6.2 mi East 16.1 mph - N/A   Partly Cloudy
6:00 PM 87.8 °F 92.6 °F 69.8 °F 55% 29.80 in 6.2 mi East 13.8 mph 25.3 mph N/A   Partly Cloudy
8:00 PM 84 °F - 72 °F 59% 29.88 in 7 mi North 2.2 mph - -   Partly Cloudy
11:00 PM 78 °F - 74 °F 83% 29.91 in 7 mi Calm Calm - -   Scattered Clouds